Date String (YYYY-MM-DD hh:mm:ss) UTC,Instrument flags,absolute air pressure of the measurement (hPa),sample flow rate (lpm),inlet stack bypass flow (lpm),air temperature of the measurement (°C),ambient temperature measured by the external sensor (°C),aerosol sample conditioner tube jacket temperature (°C),OPC LED temperature (°C),internal box temperature (°C),relative humidity of the measurement (%),span deviation,mass concentration of particles derived from Lorenz-Mie calculation of OPC scattering (μg/m³),mass concentration of particles derived from Lorenz-Mie calculation of OPC scattering (μg/m³),mass concentration of particles derived from Lorenz-Mie calculation of OPC scattering (μg/m³)
DateTimeUTC,F1_M11,P_M11,Q1_M11,Q2_M11,T1_M11,T2_M11,T3_M11,T4_M11,T5_M11,U1_M11,ZSPAN_M11,X0_M11,X2_M11,X1_M11
2024-06-13 06:00:00,SystemResetWarning,0830.0,4.99,000.00,029.5,028.4,000.0,037.8,031.2,018.2,0000.0,0010.93,0004.36,0003.60
2024-06-13 06:01:00,SystemResetWarning,0830.1,4.99,000.00,029.5,028.6,000.0,037.8,031.2,018.2,0000.0,0011.18,0004.34,0003.61
2024-06-13 06:02:00,SystemResetWarning,0830.1,5.00,000.00,029.6,028.8,000.0,037.8,031.3,018.1,0000.0,0011.69,0004.35,0003.61
2024-06-13 06:03:00,SystemResetWarning,0830.0,4.99,000.00,029.6,028.9,000.0,037.8,031.4,018.1,0000.0,0011.79,0004.35,0003.61
2024-06-13 06:04:00,SystemResetWarning,0830.0,5.00,000.00,029.7,029.0,000.0,037.8,031.5,017.9,0000.0,0011.76,0004.30,0003.60
2024-06-13 06:05:00,SystemResetWarning,0830.0,5.00,000.00,029.8,029.1,000.0,037.9,031.5,017.9,0000.0,0011.43,0004.27,0003.59
2024-06-13 06:06:00,SystemResetWarning,0830.0,4.99,000.00,029.8,029.2,000.0,037.9,031.6,017.8,0000.0,0011.59,0004.27,0003.59
2024-06-13 06:07:00,SystemResetWarning,0830.0,5.00,000.00,029.9,029.3,000.0,037.9,031.6,017.8,0000.0,0011.10,0004.23,0003.59
2024-06-13 06:08:00,SystemResetWarning,0830.1,5.02,000.00,029.9,029.4,000.0,038.0,031.7,017.8,0000.0,0009.54,0004.21,0003.59
2024-06-13 06:09:00,SystemResetWarning,0830.0,5.00,000.00,030.0,029.5,000.0,038.0,031.7,017.7,0000.0,0010.01,0004.23,0003.59
2024-06-13 06:10:00,SystemResetWarning,0830.0,4.99,000.00,030.0,029.5,000.0,038.0,031.8,017.6,0000.0,0010.31,0004.26,0003.60
2024-06-13 06:11:00,SystemResetWarning,0830.0,4.99,000.00,030.1,029.6,000.0,038.1,031.9,017.5,0000.0,0010.21,0004.30,0003.62
2024-06-13 06:12:00,SystemResetWarning,0830.0,4.99,000.00,030.1,029.7,000.0,038.1,031.9,017.6,0000.0,0009.92,0004.31,0003.63
2024-06-13 06:13:00,SystemResetWarning,0830.0,5.00,000.00,030.1,029.2,000.0,038.2,031.7,017.5,0000.0,0009.52,0004.34,0003.64
2024-06-13 06:14:00,SystemResetWarning,0829.9,5.01,000.00,029.8,026.9,000.0,038.2,030.7,017.8,0000.0,0009.40,0004.35,0003.65
2024-06-13 06:15:00,SystemResetWarning,0829.9,5.02,000.00,029.5,026.5,000.0,038.2,030.3,018.1,0000.0,0009.80,0004.38,0003.67
2024-06-13 06:16:00,SystemResetWarning,0830.0,4.99,000.00,029.4,026.9,000.0,038.2,030.5,018.2,0000.0,0009.87,0004.39,0003.69
2024-06-13 06:17:00,SystemResetWarning,0830.0,5.00,000.00,029.4,027.2,000.0,038.1,030.7,018.3,0000.0,0010.78,0004.42,0003.70
2024-06-13 06:18:00,SystemResetWarning,0830.0,5.00,000.00,029.4,027.6,000.0,038.0,030.9,018.3,0000.0,0011.81,0004.43,0003.72
2024-06-13 06:19:00,SystemResetWarning,0830.1,5.00,000.00,029.5,028.0,000.0,037.9,031.0,018.3,0000.0,0012.33,0004.45,0003.73
2024-06-13 06:20:00,SystemResetWarning,0830.0,5.01,000.00,029.5,028.2,000.0,037.9,031.1,018.2,0000.0,0012.43,0004.46,0003.74
2024-06-13 06:21:00,SystemResetWarning,0830.0,4.99,000.00,029.6,028.5,000.0,037.9,031.2,018.1,0000.0,0012.27,0004.43,0003.75
2024-06-13 06:22:00,SystemResetWarning,0830.1,4.99,000.00,029.6,028.7,000.0,037.9,031.3,018.0,0000.0,0012.09,0004.41,0003.75
2024-06-13 06:23:00,SystemResetWarning,0830.0,5.00,000.00,029.7,028.8,000.0,037.9,031.4,017.9,0000.0,0012.15,0004.40,0003.75
2024-06-13 06:24:00,SystemResetWarning,0830.0,5.00,000.00,029.7,029.0,000.0,037.9,031.4,017.8,0000.0,0012.35,0004.40,0003.76
2024-06-13 06:25:00,SystemResetWarning,0830.1,5.01,000.00,029.8,029.1,000.0,037.9,031.5,017.7,0000.0,0012.45,0004.39,0003.76
2024-06-13 06:26:00,SystemResetWarning,0830.1,5.00,000.00,029.8,029.2,000.0,038.0,031.6,017.7,0000.0,0012.22,0004.36,0003.75
2024-06-13 06:27:00,SystemResetWarning,0830.1,5.01,000.00,029.9,029.3,000.0,038.0,031.7,017.6,0000.0,0011.97,0004.36,0003.74
2024-06-13 06:28:00,SystemResetWarning,0830.0,5.00,000.00,029.9,029.4,000.0,038.0,031.7,017.6,0000.0,0010.88,0004.33,0003.74
2024-06-13 06:29:00,SystemResetWarning,0830.1,5.00,000.00,030.0,029.4,000.0,038.0,031.7,017.5,0000.0,0009.96,0004.30,0003.74
2024-06-13 06:30:00,SystemResetWarning,0830.1,5.00,000.00,030.0,029.5,000.0,038.1,031.8,017.4,0000.0,0009.65,0004.28,0003.74
2024-06-13 06:31:00,SystemResetWarning,0830.0,5.00,000.00,030.1,029.6,000.0,038.1,031.8,017.4,0000.0,0009.25,0004.24,0003.73
2024-06-13 06:32:00,SystemResetWarning,0830.1,4.99,000.00,030.1,029.6,000.0,038.1,031.9,017.4,0000.0,0008.99,0004.24,0003.72
2024-06-13 06:33:00,SystemResetWarning,0830.0,5.00,000.00,030.2,029.7,000.0,038.2,031.9,017.4,0000.0,0008.98,0004.23,0003.71
2024-06-13 06:34:00,SystemResetWarning,0830.0,5.00,000.00,030.1,028.8,000.0,038.3,031.5,017.4,0000.0,0009.01,0004.24,0003.71
2024-06-13 06:35:00,SystemResetWarning,0830.0,5.01,000.00,029.7,026.7,000.0,038.3,030.5,017.7,0000.0,0008.81,0004.22,0003.70
2024-06-13 06:36:00,SystemResetWarning,0830.0,5.02,000.00,029.5,026.6,000.0,038.3,030.3,018.4,0000.0,0008.61,0004.21,0003.70
2024-06-13 06:37:00,SystemResetWarning,0830.0,4.99,000.00,029.4,027.0,000.0,038.2,030.5,018.5,0000.0,0008.72,0004.24,0003.71
2024-06-13 06:38:00,SystemResetWarning,0830.0,5.00,000.00,029.4,027.4,000.0,038.1,030.7,018.6,0000.0,0008.77,0004.26,0003.71
2024-06-13 06:39:00,SystemResetWarning,0830.0,5.00,000.00,029.5,027.7,000.0,038.0,030.9,018.5,0000.0,0008.68,0004.26,0003.70
2024-06-13 06:40:00,SystemResetWarning,0830.0,5.00,000.00,029.5,028.0,000.0,038.0,031.1,018.6,0000.0,0008.58,0004.29,0003.70
2024-06-13 06:41:00,SystemResetWarning,0830.0,5.00,000.00,029.5,028.3,000.0,038.0,031.2,018.6,0000.0,0008.37,0004.30,0003.70
2024-06-13 06:42:00,SystemResetWarning,0830.0,5.01,000.00,029.6,028.5,000.0,037.9,031.3,018.6,0000.0,0008.61,0004.38,0003.71
2024-06-13 06:43:00,SystemResetWarning,0830.1,5.00,000.00,029.6,028.7,000.0,037.9,031.3,018.5,0000.0,0008.75,0004.41,0003.72
2024-06-13 06:44:00,SystemResetWarning,0830.0,5.00,000.00,029.7,028.9,000.0,037.9,031.4,018.3,0000.0,0008.85,0004.45,0003.74
2024-06-13 06:45:00,SystemResetWarning,0830.0,5.00,000.00,029.7,029.0,000.0,038.0,031.5,018.2,0000.0,0009.19,0004.44,0003.74
2024-06-13 06:46:00,SystemResetWarning,0830.0,5.00,000.00,029.8,029.1,000.0,038.0,031.5,018.2,0000.0,0009.91,0004.48,0003.76
2024-06-13 06:47:00,SystemResetWarning,0830.0,5.00,000.00,029.8,029.2,000.0,038.0,031.6,018.0,0000.0,0010.19,0004.53,0003.77
2024-06-13 06:48:00,SystemResetWarning,0830.0,5.00,000.00,029.9,029.3,000.0,038.0,031.7,017.9,0000.0,0010.80,0004.57,0003.77
2024-06-13 06:49:00,SystemResetWarning,0830.0,5.00,000.00,029.9,029.4,000.0,038.1,031.7,018.0,0000.0,0010.69,0004.57,0003.79
2024-06-13 06:50:00,SystemResetWarning,0830.0,5.00,000.00,030.0,029.4,000.0,038.1,031.8,017.9,0000.0,0010.89,0004.62,0003.81
2024-06-13 06:51:00,SystemResetWarning,0830.0,5.00,000.00,030.0,029.5,000.0,038.1,031.8,017.7,0000.0,0011.36,0004.63,0003.81
2024-06-13 06:52:00,SystemResetWarning,0830.0,4.99,000.00,030.1,029.6,000.0,038.2,031.9,017.5,0000.0,0011.79,0004.62,0003.81
2024-06-13 06:53:00,SystemResetWarning,0830.0,5.00,000.00,030.1,029.6,000.0,038.2,031.9,017.4,0000.0,0011.59,0004.59,0003.82
2024-06-13 06:54:00,SystemResetWarning,0830.0,5.00,000.00,030.2,029.7,000.0,038.2,031.9,017.5,0000.0,0012.01,0004.61,0003.82
2024-06-13 06:55:00,SystemResetWarning,0830.1,5.00,000.00,030.2,029.7,000.0,038.3,032.0,017.4,0000.0,0012.27,0004.64,0003.82
2024-06-13 06:56:00,SystemResetWarning,0830.0,4.99,000.00,030.2,029.5,000.0,038.3,031.8,017.3,0000.0,0012.26,0004.63,0003.82
2024-06-13 06:57:00,SystemResetWarning,0829.8,5.01,000.00,030.0,027.4,000.0,038.4,030.9,017.3,0000.0,0012.33,0004.56,0003.81
2024-06-13 06:58:00,SystemResetWarning,0829.8,5.02,000.00,029.6,026.5,000.0,038.4,030.4,017.5,0000.0,0012.19,0004.54,0003.81
2024-06-13 06:59:00,SystemResetWarning,0829.8,5.00,000.00,029.5,026.8,000.0,038.3,030.4,017.6,0000.0,0011.61,0004.52,0003.81
